Time,TemperatureF,DewpointF,PressureIn,WindDirection,WindDirectionDegrees,WindSpeedMPH,WindSpeedGustMPH,Humidity,HourlyPrecipIn,Conditions,Clouds,dailyrainin,SoftwareType,DateUTC
2013-08-28 00:00:00,73.2,68.8,29.99,SSE,158,0.0,0.0,86,0.00,RA,,0.00,WeatherDisplay:10.37,2013-08-28 04:00:00,
2013-08-28 00:05:00,73.0,68.6,29.99,SE,141,0.0,0.0,86,0.00,RA,,0.00,WeatherDisplay:10.37,2013-08-28 04:05:00,
2013-08-28 00:10:00,73.2,68.7,29.98,SE,141,1.0,1.0,86,0.00,CLR,,0.00,WeatherDisplay:10.37,2013-08-28 04:10:00,
2013-08-28 00:15:00,73.0,68.6,29.98,SSE,152,0.0,1.0,86,0.00,CLR,,0.00,WeatherDisplay:10.37,2013-08-28 04:15:00,
2013-08-28 00:20:00,73.0,68.6,29.98,SSE,158,0.0,1.0,86,0.00,CLR,,0.00,WeatherDisplay:10.37,2013-08-28 04:20:00,
2013-08-28 00:25:00,73.0,68.6,29.97,SSE,158,0.0,0.0,86,0.00,CLR,,0.00,WeatherDisplay:10.37,2013-08-28 04:25:00,
2013-08-28 00:30:00,73.0,68.9,29.98,SSE,163,0.0,1.0,87,0.00,CLR,,0.00,WeatherDisplay:10.37,2013-08-28 04:30:00,
2013-08-28 00:40:00,73.0,68.9,29.97,SE,144,0.0,1.0,87,0.00,CLR,,0.00,WeatherDisplay:10.37,2013-08-28 04:40:00,
2013-08-28 00:45:00,73.0,68.9,29.97,ESE,121,0.0,0.0,87,0.00,CLR,,0.00,WeatherDisplay:10.37,2013-08-28 04:45:00,
2013-08-28 00:50:00,73.0,68.9,29.97,SSE,148,1.0,1.0,87,0.00,CLR,,0.00,WeatherDisplay:10.37,2013-08-28 04:50:00,
2013-08-28 00:55:00,73.0,68.9,29.97,SSE,162,1.0,1.0,87,0.00,CLR,,0.00,WeatherDisplay:10.37,2013-08-28 04:55:00,
2013-08-28 01:00:00,73.0,68.9,29.97,SSE,151,0.0,1.0,87,0.00,CLR,,0.00,WeatherDisplay:10.37,2013-08-28 05:00:00,
2013-08-28 01:05:00,73.0,68.6,29.97,SSE,158,1.0,2.0,86,0.00,CLR,,0.00,WeatherDisplay:10.37,2013-08-28 05:05:00,
2013-08-28 01:10:00,73.0,68.6,29.96,SSE,168,1.0,1.0,86,0.00,CLR,,0.00,WeatherDisplay:10.37,2013-08-28 05:10:00,
2013-08-28 01:15:00,72.9,68.4,29.96,SSE,160,1.0,1.0,86,0.00,CLR,,0.00,WeatherDisplay:10.37,2013-08-28 05:15:00,
2013-08-28 01:20:00,72.9,68.8,29.96,SSE,158,1.0,1.0,87,0.00,CLR,,0.00,WeatherDisplay:10.37,2013-08-28 05:20:00,
2013-08-28 01:25:00,72.8,68.7,29.96,SSE,158,0.0,1.0,87,0.00,CLR,,0.00,WeatherDisplay:10.37,2013-08-28 05:25:00,
2013-08-28 01:30:00,72.7,68.6,29.95,SSE,166,0.0,0.0,87,0.00,CLR,,0.00,WeatherDisplay:10.37,2013-08-28 05:30:00,
2013-08-28 01:35:00,72.7,68.6,29.95,SSE,163,1.0,1.0,87,0.01,RA,,0.01,WeatherDisplay:10.37,2013-08-28 05:35:00,
2013-08-28 01:40:00,72.7,68.6,29.95,South,170,0.0,1.0,87,0.00,RA,,0.01,WeatherDisplay:10.37,2013-08-28 05:40:00,
2013-08-28 01:45:00,72.7,68.9,29.95,South,171,0.0,0.0,88,0.00,,,0.01,WeatherDisplay:10.37,2013-08-28 05:45:00,
2013-08-28 01:50:00,72.5,68.8,29.95,SSE,165,0.0,0.0,88,0.01,RA,,0.02,WeatherDisplay:10.37,2013-08-28 05:50:00,
2013-08-28 02:00:00,72.5,68.7,29.94,SSW,211,0.0,0.0,88,0.00,,,0.02,WeatherDisplay:10.37,2013-08-28 06:00:00,
2013-08-28 02:10:00,72.3,68.9,29.93,SSW,196,0.0,0.0,89,0.00,CLR,,0.02,WeatherDisplay:10.37,2013-08-28 06:10:00,
2013-08-28 02:15:00,72.3,68.9,29.93,SW,231,0.0,2.0,89,0.01,RA,,0.03,WeatherDisplay:10.37,2013-08-28 06:15:00,
2013-08-28 02:20:00,72.3,68.9,29.93,SW,222,0.0,0.0,89,0.00,RA,,0.03,WeatherDisplay:10.37,2013-08-28 06:20:00,
2013-08-28 02:25:00,72.3,68.9,29.93,SW,222,0.0,1.0,89,0.00,CLR,,0.03,WeatherDisplay:10.37,2013-08-28 06:25:00,
2013-08-28 02:30:00,72.3,69.2,29.93,SW,230,0.0,1.0,90,0.00,CLR,,0.03,WeatherDisplay:10.37,2013-08-28 06:30:00,
2013-08-28 02:35:00,72.3,69.2,29.93,SW,217,0.0,1.0,90,0.00,CLR,,0.03,WeatherDisplay:10.37,2013-08-28 06:35:00,
2013-08-28 02:40:00,72.4,69.3,29.93,SW,215,0.0,1.0,90,0.01,RA,,0.04,WeatherDisplay:10.37,2013-08-28 06:40:00,
2013-08-28 02:45:00,72.5,69.4,29.93,South,191,0.0,1.0,90,0.00,RA,,0.04,WeatherDisplay:10.37,2013-08-28 06:45:00,
2013-08-28 02:50:00,72.5,69.4,29.93,South,189,0.0,1.0,90,0.00,,,0.04,WeatherDisplay:10.37,2013-08-28 06:50:00,
2013-08-28 03:00:00,72.6,69.5,29.93,SW,231,0.0,1.0,90,0.00,RA,,0.05,WeatherDisplay:10.37,2013-08-28 07:00:00,
2013-08-28 03:05:00,72.7,69.6,29.93,South,191,0.0,1.0,90,0.01,RA,,0.06,WeatherDisplay:10.37,2013-08-28 07:05:00,
2013-08-28 03:15:00,72.7,69.6,29.93,WSW,248,0.0,0.0,90,0.01,RA,,0.08,WeatherDisplay:10.37,2013-08-28 07:15:00,
2013-08-28 03:20:00,72.7,69.6,29.93,West,274,1.0,2.0,90,0.00,RA,,0.08,WeatherDisplay:10.37,2013-08-28 07:20:00,
2013-08-28 03:25:00,72.7,69.6,29.94,North,350,1.0,2.0,90,0.02,RA,,0.10,WeatherDisplay:10.37,2013-08-28 07:25:00,
2013-08-28 03:35:00,72.7,69.6,29.94,NNE,21,1.0,2.0,90,0.00,CLR,,0.10,WeatherDisplay:10.37,2013-08-28 07:35:00,
2013-08-28 03:40:00,72.7,69.6,29.93,NNE,30,1.0,2.0,90,0.01,RA,,0.11,WeatherDisplay:10.37,2013-08-28 07:40:00,
2013-08-28 03:45:00,72.7,69.6,29.93,NNE,28,0.0,1.0,90,0.00,RA,,0.11,WeatherDisplay:10.37,2013-08-28 07:45:00,
2013-08-28 03:55:00,72.7,69.6,29.94,NW,310,2.0,2.0,90,0.02,RA,,0.14,WeatherDisplay:10.37,2013-08-28 07:55:00,
2013-08-28 04:00:00,72.7,69.6,29.93,NNE,27,2.0,3.0,90,0.34,RA,,0.48,WeatherDisplay:10.37,2013-08-28 08:00:00,
2013-08-28 04:05:00,72.7,69.6,29.93,NE,42,1.0,3.0,90,0.15,RA,,0.63,WeatherDisplay:10.37,2013-08-28 08:05:00,
2013-08-28 04:10:00,72.6,69.5,29.93,NE,38,1.0,1.0,90,0.10,RA,,0.73,WeatherDisplay:10.37,2013-08-28 08:10:00,
2013-08-28 04:20:00,72.3,69.2,29.92,NE,41,1.0,2.0,90,0.01,RA,,0.84,WeatherDisplay:10.37,2013-08-28 08:20:00,
2013-08-28 04:25:00,72.3,69.2,29.92,NE,56,1.0,2.0,90,0.00,RA,,0.84,WeatherDisplay:10.37,2013-08-28 08:25:00,
2013-08-28 04:30:00,72.1,69.0,29.92,ENE,73,0.0,0.0,90,0.00,CLR,,0.84,WeatherDisplay:10.37,2013-08-28 08:30:00,
2013-08-28 04:35:00,72.1,69.0,29.92,ENE,68,0.0,0.0,90,0.00,CLR,,0.84,WeatherDisplay:10.37,2013-08-28 08:35:00,
2013-08-28 04:45:00,71.8,68.7,29.93,North,9,0.0,1.0,90,0.00,CLR,,0.84,WeatherDisplay:10.37,2013-08-28 08:45:00,
2013-08-28 04:50:00,71.8,68.7,29.93,NNE,32,1.0,1.0,90,0.00,CLR,,0.84,WeatherDisplay:10.37,2013-08-28 08:50:00,
2013-08-28 04:55:00,71.6,68.5,29.93,ESE,104,0.0,1.0,90,0.00,CLR,,0.84,WeatherDisplay:10.37,2013-08-28 08:55:00,
2013-08-28 05:05:00,71.6,68.5,29.93,East,90,0.0,0.0,90,0.00,CLR,,0.84,WeatherDisplay:10.37,2013-08-28 09:05:00,
2013-08-28 05:10:00,71.6,68.8,29.93,East,86,1.0,1.0,91,0.00,CLR,,0.84,WeatherDisplay:10.37,2013-08-28 09:10:00,
2013-08-28 05:20:00,71.6,68.8,29.94,NNW,337,1.0,1.0,91,0.01,RA,,0.85,WeatherDisplay:10.37,2013-08-28 09:20:00,
2013-08-28 05:25:00,71.6,68.8,29.93,NE,48,0.0,0.0,91,0.00,RA,,0.85,WeatherDisplay:10.37,2013-08-28 09:25:00,
2013-08-28 05:30:00,71.6,68.8,29.93,ENE,66,2.0,3.0,91,0.01,RA,,0.86,WeatherDisplay:10.37,2013-08-28 09:30:00,
2013-08-28 05:40:00,71.6,68.8,29.93,ENE,74,1.0,1.0,91,0.00,CLR,,0.86,WeatherDisplay:10.37,2013-08-28 09:40:00,
2013-08-28 05:50:00,71.6,68.8,29.92,ENE,76,0.0,1.0,91,0.00,CLR,,0.86,WeatherDisplay:10.37,2013-08-28 09:50:00,
2013-08-28 06:00:00,71.5,68.8,29.93,ENE,68,0.0,0.0,91,0.00,CLR,,0.86,WeatherDisplay:10.37,2013-08-28 10:00:00,
2013-08-28 06:05:00,71.5,68.8,29.93,ENE,68,0.0,0.0,91,0.00,CLR,,0.86,WeatherDisplay:10.37,2013-08-28 10:05:00,
2013-08-28 06:10:00,71.4,68.7,29.93,ENE,68,0.0,0.0,91,0.00,CLR,,0.86,WeatherDisplay:10.37,2013-08-28 10:10:00,
2013-08-28 06:15:00,71.4,68.7,29.93,ENE,68,0.0,0.0,91,0.00,CLR,,0.86,WeatherDisplay:10.37,2013-08-28 10:15:00,
2013-08-28 06:20:00,71.4,68.7,29.93,ENE,68,0.0,0.0,91,0.00,CLR,,0.86,WeatherDisplay:10.37,2013-08-28 10:20:00,
2013-08-28 06:25:00,71.4,68.7,29.93,ENE,68,0.0,0.0,91,0.00,CLR,,0.86,WeatherDisplay:10.37,2013-08-28 10:25:00,
2013-08-28 06:30:00,71.4,68.7,29.93,ENE,68,0.0,0.0,91,0.00,CLR,,0.86,WeatherDisplay:10.37,2013-08-28 10:30:00,
2013-08-28 06:35:00,71.4,68.7,29.93,East,94,1.0,2.0,91,0.01,RA,,0.87,WeatherDisplay:10.37,2013-08-28 10:35:00,
2013-08-28 06:40:00,71.4,68.7,29.93,SSE,162,0.0,1.0,91,0.00,RA,,0.87,WeatherDisplay:10.37,2013-08-28 10:40:00,
2013-08-28 06:45:00,71.4,68.6,29.93,West,263,0.0,0.0,91,0.00,CLR,,0.87,WeatherDisplay:10.37,2013-08-28 10:45:00,
2013-08-28 06:55:00,71.2,68.5,29.94,South,180,0.0,0.0,91,0.00,CLR,,0.87,WeatherDisplay:10.37,2013-08-28 10:55:00,
2013-08-28 07:00:00,71.3,68.5,29.94,SSW,201,1.0,1.0,91,0.00,CLR,,0.87,WeatherDisplay:10.37,2013-08-28 11:00:00,
2013-08-28 07:05:00,71.2,68.5,29.94,South,173,0.0,0.0,91,0.00,CLR,,0.87,WeatherDisplay:10.37,2013-08-28 11:05:00,
2013-08-28 07:10:00,71.2,68.5,29.93,SSE,158,0.0,1.0,91,0.00,CLR,,0.87,WeatherDisplay:10.37,2013-08-28 11:10:00,
2013-08-28 07:20:00,71.3,68.5,29.94,SSW,206,1.0,1.0,91,0.00,CLR,,0.87,WeatherDisplay:10.37,2013-08-28 11:20:00,
2013-08-28 07:25:00,71.3,68.5,29.94,WSW,243,0.0,0.0,91,0.00,CLR,,0.87,WeatherDisplay:10.37,2013-08-28 11:25:00,
2013-08-28 07:30:00,71.4,68.7,29.94,SSE,161,0.0,0.0,91,0.00,CLR,,0.87,WeatherDisplay:10.37,2013-08-28 11:30:00,
2013-08-28 07:35:00,71.4,68.7,29.94,SE,132,0.0,0.0,91,0.00,CLR,,0.87,WeatherDisplay:10.37,2013-08-28 11:35:00,
2013-08-28 07:40:00,71.4,68.7,29.93,ESE,116,0.0,0.0,91,0.00,CLR,,0.87,WeatherDisplay:10.37,2013-08-28 11:40:00,
2013-08-28 07:45:00,71.4,68.7,29.93,NNE,26,0.0,1.0,91,0.00,CLR,,0.87,WeatherDisplay:10.37,2013-08-28 11:45:00,
2013-08-28 07:50:00,71.6,68.8,29.93,NNE,14,0.0,0.0,91,0.00,CLR,,0.87,WeatherDisplay:10.37,2013-08-28 11:50:00,
2013-08-28 07:55:00,71.6,68.8,29.93,NNE,22,0.0,0.0,91,0.00,CLR,,0.87,WeatherDisplay:10.37,2013-08-28 11:55:00,
2013-08-28 08:00:00,71.6,68.8,29.93,ENE,59,0.0,0.0,91,0.00,CLR,,0.87,WeatherDisplay:10.37,2013-08-28 12:00:00,
2013-08-28 08:10:00,71.6,68.8,29.93,NE,42,1.0,2.0,91,0.00,CLR,,0.87,WeatherDisplay:10.37,2013-08-28 12:10:00,
2013-08-28 08:15:00,71.6,69.2,29.93,SE,133,0.0,2.0,92,0.00,CLR,,0.87,WeatherDisplay:10.37,2013-08-28 12:15:00,
2013-08-28 08:20:00,71.6,69.2,29.93,SSE,158,1.0,1.0,92,0.00,CLR,,0.87,WeatherDisplay:10.37,2013-08-28 12:20:00,
2013-08-28 08:30:00,71.7,69.2,29.93,SSE,156,1.0,1.0,92,0.00,CLR,,0.87,WeatherDisplay:10.37,2013-08-28 12:30:00,
2013-08-28 08:35:00,71.8,69.3,29.93,SE,142,1.0,2.0,92,0.00,CLR,,0.87,WeatherDisplay:10.37,2013-08-28 12:35:00,
2013-08-28 08:40:00,71.7,69.2,29.93,SE,137,0.0,0.0,92,0.00,CLR,,0.87,WeatherDisplay:10.37,2013-08-28 12:40:00,
2013-08-28 08:50:00,71.6,69.2,29.92,SE,132,1.0,1.0,92,0.00,CLR,,0.87,WeatherDisplay:10.37,2013-08-28 12:50:00,
2013-08-28 08:55:00,71.6,69.2,29.92,SSE,148,0.0,1.0,92,0.00,CLR,,0.87,WeatherDisplay:10.37,2013-08-28 12:55:00,
2013-08-28 09:00:00,71.6,69.2,29.93,SSE,168,1.0,2.0,92,0.00,CLR,,0.87,WeatherDisplay:10.37,2013-08-28 13:00:00,
2013-08-28 09:05:00,71.4,69.0,29.93,South,174,2.0,2.0,92,0.00,CLR,,0.87,WeatherDisplay:10.37,2013-08-28 13:05:00,
2013-08-28 09:10:00,71.2,68.8,29.92,SSE,166,1.0,2.0,92,0.00,CLR,,0.87,WeatherDisplay:10.37,2013-08-28 13:10:00,
2013-08-28 09:20:00,71.2,68.8,29.92,SSE,167,1.0,2.0,92,0.00,CLR,,0.87,WeatherDisplay:10.37,2013-08-28 13:20:00,
2013-08-28 09:25:00,71.1,68.6,29.92,SSE,162,1.0,5.0,92,0.00,CLR,,0.87,WeatherDisplay:10.37,2013-08-28 13:25:00,
2013-08-28 09:30:00,71.1,68.6,29.92,South,169,0.0,1.0,92,0.00,CLR,,0.87,WeatherDisplay:10.37,2013-08-28 13:30:00,
2013-08-28 09:35:00,71.0,68.6,29.92,SSW,194,0.0,0.0,92,0.00,CLR,,0.87,WeatherDisplay:10.37,2013-08-28 13:35:00,
2013-08-28 09:40:00,71.0,68.6,29.92,South,184,1.0,2.0,92,0.00,CLR,,0.87,WeatherDisplay:10.37,2013-08-28 13:40:00,
2013-08-28 09:45:00,70.9,68.5,29.92,South,182,1.0,2.0,92,0.00,CLR,,0.87,WeatherDisplay:10.37,2013-08-28 13:45:00,
2013-08-28 09:50:00,70.9,68.5,29.92,South,191,0.0,1.0,92,0.00,CLR,,0.87,WeatherDisplay:10.37,2013-08-28 13:50:00,
2013-08-28 09:55:00,71.1,68.6,29.92,SW,222,0.0,2.0,92,0.00,CLR,,0.87,WeatherDisplay:10.37,2013-08-28 13:55:00,
2013-08-28 10:00:00,71.1,68.6,29.92,SSW,200,1.0,2.0,92,0.00,CLR,,0.87,WeatherDisplay:10.37,2013-08-28 14:00:00,
2013-08-28 10:05:00,71.2,68.8,29.91,South,186,1.0,3.0,92,0.00,CLR,,0.87,WeatherDisplay:10.37,2013-08-28 14:05:00,
2013-08-28 10:10:00,71.2,68.8,29.91,SSW,196,0.0,2.0,92,0.00,CLR,,0.87,WeatherDisplay:10.37,2013-08-28 14:10:00,
2013-08-28 10:20:00,71.4,69.0,29.91,South,179,1.0,2.0,92,0.00,CLR,,0.87,WeatherDisplay:10.37,2013-08-28 14:20:00,
2013-08-28 10:25:00,71.6,69.2,29.91,South,179,1.0,1.0,92,0.00,CLR,,0.87,WeatherDisplay:10.37,2013-08-28 14:25:00,
2013-08-28 10:30:00,71.8,69.6,29.90,SSE,165,1.0,2.0,93,0.00,CLR,,0.87,WeatherDisplay:10.37,2013-08-28 14:30:00,
2013-08-28 10:35:00,71.8,69.7,29.90,South,170,0.0,3.0,93,0.00,CLR,,0.87,WeatherDisplay:10.37,2013-08-28 14:35:00,
2013-08-28 10:40:00,72.0,69.8,29.91,SSW,210,1.0,3.0,93,0.00,CLR,,0.87,WeatherDisplay:10.37,2013-08-28 14:40:00,
2013-08-28 10:45:00,72.3,70.2,29.91,SSW,194,2.0,3.0,93,0.00,CLR,,0.87,WeatherDisplay:10.37,2013-08-28 14:45:00,
2013-08-28 10:50:00,72.5,70.4,29.91,South,181,1.0,2.0,93,0.00,CLR,,0.87,WeatherDisplay:10.37,2013-08-28 14:50:00,
2013-08-28 11:00:00,72.9,70.7,29.90,SW,219,1.0,1.0,93,0.00,CLR,,0.87,WeatherDisplay:10.37,2013-08-28 15:00:00,
2013-08-28 11:05:00,72.9,70.7,29.90,SSW,193,0.0,2.0,93,0.00,CLR,,0.87,WeatherDisplay:10.37,2013-08-28 15:05:00,
2013-08-28 11:15:00,73.2,71.1,29.90,SSW,207,1.0,1.0,93,0.00,CLR,,0.87,WeatherDisplay:10.37,2013-08-28 15:15:00,
2013-08-28 11:25:00,73.8,71.9,29.89,South,185,1.0,1.0,94,0.00,CLR,,0.87,WeatherDisplay:10.37,2013-08-28 15:25:00,
2013-08-28 11:30:00,73.9,72.1,29.89,SW,234,1.0,6.0,94,0.00,CLR,,0.87,WeatherDisplay:10.37,2013-08-28 15:30:00,
2013-08-28 11:40:00,73.9,72.1,29.89,SSW,209,1.0,2.0,94,0.00,CLR,,0.87,WeatherDisplay:10.37,2013-08-28 15:40:00,
2013-08-28 11:50:00,73.8,71.9,29.89,SW,217,2.0,3.0,94,0.00,CLR,,0.87,WeatherDisplay:10.37,2013-08-28 15:50:00,
2013-08-28 11:55:00,73.8,71.9,29.89,SW,227,1.0,2.0,94,0.00,CLR,,0.87,WeatherDisplay:10.37,2013-08-28 15:55:00,
2013-08-28 12:00:00,73.8,72.0,29.89,SW,227,0.0,0.0,94,0.00,CLR,,0.87,WeatherDisplay:10.37,2013-08-28 16:00:00,
2013-08-28 12:05:00,73.9,72.1,29.89,SW,230,1.0,1.0,94,0.00,CLR,,0.87,WeatherDisplay:10.37,2013-08-28 16:05:00,
2013-08-28 12:10:00,73.9,72.1,29.89,WSW,245,1.0,1.0,94,0.00,CLR,,0.87,WeatherDisplay:10.37,2013-08-28 16:10:00,
2013-08-28 12:20:00,73.8,71.9,29.89,SW,231,0.0,2.0,94,0.00,CLR,,0.87,WeatherDisplay:10.37,2013-08-28 16:20:00,
2013-08-28 12:25:00,73.8,71.9,29.89,SW,226,0.0,1.0,94,0.00,CLR,,0.87,WeatherDisplay:10.37,2013-08-28 16:25:00,
2013-08-28 12:30:00,73.8,71.9,29.89,South,190,0.0,1.0,94,0.00,CLR,,0.87,WeatherDisplay:10.37,2013-08-28 16:30:00,
2013-08-28 12:35:00,73.8,71.9,29.88,SSE,167,0.0,1.0,94,0.00,CLR,,0.87,WeatherDisplay:10.37,2013-08-28 16:35:00,
2013-08-28 12:45:00,73.8,71.9,29.88,SW,235,1.0,3.0,94,0.00,CLR,,0.87,WeatherDisplay:10.37,2013-08-28 16:45:00,
2013-08-28 12:50:00,73.8,72.0,29.88,SW,230,1.0,4.0,94,0.00,CLR,,0.87,WeatherDisplay:10.37,2013-08-28 16:50:00,
2013-08-28 12:55:00,73.9,72.1,29.88,SW,219,0.0,2.0,94,0.00,CLR,,0.87,WeatherDisplay:10.37,2013-08-28 16:55:00,
2013-08-28 13:05:00,74.1,72.3,29.88,SW,226,1.0,1.0,94,0.00,CLR,,0.87,WeatherDisplay:10.37,2013-08-28 17:05:00,
2013-08-28 13:10:00,73.9,72.1,29.88,SW,214,1.0,1.0,94,0.00,CLR,,0.87,WeatherDisplay:10.37,2013-08-28 17:10:00,
2013-08-28 13:20:00,74.1,72.3,29.88,SW,225,1.0,2.0,94,0.00,CLR,,0.87,WeatherDisplay:10.37,2013-08-28 17:20:00,
2013-08-28 13:30:00,74.5,72.6,29.88,SW,230,2.0,5.0,94,0.00,CLR,,0.87,WeatherDisplay:10.37,2013-08-28 17:30:00,
2013-08-28 13:40:00,74.7,72.8,29.88,SW,232,1.0,2.0,94,0.00,CLR,,0.87,WeatherDisplay:10.37,2013-08-28 17:40:00,
2013-08-28 13:45:00,74.7,72.8,29.88,SW,217,1.0,2.0,94,0.01,RA,,0.88,WeatherDisplay:10.37,2013-08-28 17:45:00,
2013-08-28 13:50:00,74.8,72.7,29.88,SW,214,2.0,3.0,93,0.00,RA,,0.88,WeatherDisplay:10.37,2013-08-28 17:50:00,
2013-08-28 13:55:00,74.8,72.7,29.88,SW,235,1.0,3.0,93,0.00,CLR,,0.88,WeatherDisplay:10.37,2013-08-28 17:55:00,
2013-08-28 14:00:00,75.2,73.1,29.88,SW,232,1.0,2.0,93,0.00,CLR,,0.88,WeatherDisplay:10.37,2013-08-28 18:00:00,
2013-08-28 14:05:00,75.6,73.4,29.88,SW,217,3.0,5.0,93,0.00,CLR,,0.88,WeatherDisplay:10.37,2013-08-28 18:05:00,
2013-08-28 14:10:00,75.7,73.6,29.88,SSW,203,1.0,3.0,93,0.00,CLR,,0.88,WeatherDisplay:10.37,2013-08-28 18:10:00,
2013-08-28 14:20:00,75.8,73.3,29.88,SSW,195,1.0,3.0,92,0.00,CLR,,0.88,WeatherDisplay:10.37,2013-08-28 18:20:00,
2013-08-28 14:25:00,75.9,73.4,29.88,SW,215,1.0,2.0,92,0.00,CLR,,0.88,WeatherDisplay:10.37,2013-08-28 18:25:00,
2013-08-28 14:30:00,76.3,73.8,29.88,SW,215,1.0,2.0,92,0.00,CLR,,0.88,WeatherDisplay:10.37,2013-08-28 18:30:00,
2013-08-28 14:35:00,76.7,74.2,29.88,SSW,202,1.0,3.0,92,0.00,CLR,,0.88,WeatherDisplay:10.37,2013-08-28 18:35:00,
2013-08-28 14:40:00,77.0,74.2,29.88,SSW,196,2.0,5.0,91,0.00,CLR,,0.88,WeatherDisplay:10.37,2013-08-28 18:40:00,
2013-08-28 14:45:00,77.2,74.0,29.88,SSW,211,5.0,5.0,90,0.00,CLR,,0.88,WeatherDisplay:10.37,2013-08-28 18:45:00,
2013-08-28 14:50:00,77.2,73.7,29.88,SW,227,2.0,5.0,89,0.00,CLR,,0.88,WeatherDisplay:10.37,2013-08-28 18:50:00,
2013-08-28 14:55:00,77.2,73.7,29.88,SW,230,3.0,3.0,89,0.00,CLR,,0.88,WeatherDisplay:10.37,2013-08-28 18:55:00,
2013-08-28 15:05:00,77.4,73.5,29.88,South,189,2.0,4.0,88,0.00,CLR,,0.88,WeatherDisplay:10.37,2013-08-28 19:05:00,
2013-08-28 15:10:00,77.4,73.9,29.88,SSW,193,1.0,2.0,89,0.00,CLR,,0.88,WeatherDisplay:10.37,2013-08-28 19:10:00,
2013-08-28 15:15:00,77.4,73.9,29.88,SSW,207,1.0,2.0,89,0.00,CLR,,0.88,WeatherDisplay:10.37,2013-08-28 19:15:00,
2013-08-28 15:20:00,77.3,73.4,29.88,SW,217,1.0,2.0,88,0.00,CLR,,0.88,WeatherDisplay:10.37,2013-08-28 19:20:00,
2013-08-28 15:25:00,76.8,73.0,29.87,SW,228,1.0,2.0,88,0.00,CLR,,0.88,WeatherDisplay:10.37,2013-08-28 19:25:00,
2013-08-28 15:30:00,76.6,72.8,29.88,SW,226,1.0,3.0,88,0.00,CLR,,0.88,WeatherDisplay:10.37,2013-08-28 19:30:00,
2013-08-28 15:35:00,76.6,72.8,29.88,South,189,1.0,2.0,88,0.00,CLR,,0.88,WeatherDisplay:10.37,2013-08-28 19:35:00,
2013-08-28 15:40:00,76.6,73.1,29.87,SSE,161,1.0,2.0,89,0.00,CLR,,0.88,WeatherDisplay:10.37,2013-08-28 19:40:00,
2013-08-28 15:45:00,76.5,73.0,29.87,NW,321,1.0,4.0,89,0.00,CLR,,0.88,WeatherDisplay:10.37,2013-08-28 19:45:00,
2013-08-28 15:50:00,76.5,73.0,29.88,WSW,238,1.0,2.0,89,0.00,CLR,,0.88,WeatherDisplay:10.37,2013-08-28 19:50:00,
2013-08-28 15:55:00,76.5,73.0,29.88,South,188,1.0,1.0,89,0.00,CLR,,0.88,WeatherDisplay:10.37,2013-08-28 19:55:00,
2013-08-28 16:00:00,76.5,73.0,29.88,West,261,1.0,5.0,89,0.00,CLR,,0.88,WeatherDisplay:10.37,2013-08-28 20:00:00,
2013-08-28 16:05:00,76.5,73.0,29.88,NW,305,1.0,3.0,89,0.00,CLR,,0.88,WeatherDisplay:10.37,2013-08-28 20:05:00,
2013-08-28 16:10:00,76.5,73.0,29.88,SW,216,1.0,1.0,89,0.00,CLR,,0.88,WeatherDisplay:10.37,2013-08-28 20:10:00,
2013-08-28 16:15:00,76.6,73.2,29.87,SSW,213,0.0,1.0,89,0.00,CLR,,0.88,WeatherDisplay:10.37,2013-08-28 20:15:00,
2013-08-28 16:20:00,76.6,73.2,29.87,SSW,204,1.0,3.0,89,0.00,CLR,,0.88,WeatherDisplay:10.37,2013-08-28 20:20:00,
2013-08-28 16:25:00,76.8,73.3,29.87,South,189,1.0,1.0,89,0.00,CLR,,0.88,WeatherDisplay:10.37,2013-08-28 20:25:00,
2013-08-28 16:30:00,77.0,73.5,29.87,SSW,197,1.0,2.0,89,0.00,CLR,,0.88,WeatherDisplay:10.37,2013-08-28 20:30:00,
2013-08-28 16:40:00,77.4,73.9,29.87,SW,230,1.0,2.0,89,0.00,CLR,,0.88,WeatherDisplay:10.37,2013-08-28 20:40:00,
2013-08-28 16:45:00,77.4,73.5,29.87,WSW,251,1.0,2.0,88,0.00,CLR,,0.88,WeatherDisplay:10.37,2013-08-28 20:45:00,
2013-08-28 16:50:00,77.2,73.0,29.87,NW,315,1.0,2.0,87,0.00,CLR,,0.88,WeatherDisplay:10.37,2013-08-28 20:50:00,
2013-08-28 16:55:00,77.0,72.8,29.87,WNW,289,1.0,3.0,87,0.00,CLR,,0.88,WeatherDisplay:10.37,2013-08-28 20:55:00,
2013-08-28 17:00:00,77.0,72.8,29.86,WNW,302,2.0,3.0,87,0.00,CLR,,0.88,WeatherDisplay:10.37,2013-08-28 21:00:00,
2013-08-28 17:05:00,77.0,72.8,29.87,West,274,3.0,5.0,87,0.00,CLR,,0.88,WeatherDisplay:10.37,2013-08-28 21:05:00,
2013-08-28 17:10:00,77.3,73.1,29.86,SW,231,2.0,2.0,87,0.00,CLR,,0.88,WeatherDisplay:10.37,2013-08-28 21:10:00,
2013-08-28 17:15:00,77.4,73.2,29.86,SW,224,0.0,2.0,87,0.00,CLR,,0.88,WeatherDisplay:10.37,2013-08-28 21:15:00,
2013-08-28 17:20:00,77.7,73.5,29.86,SSE,159,1.0,2.0,87,0.00,CLR,,0.88,WeatherDisplay:10.37,2013-08-28 21:20:00,
2013-08-28 17:25:00,77.7,72.8,29.86,SSW,200,1.0,2.0,85,0.00,CLR,,0.88,WeatherDisplay:10.37,2013-08-28 21:25:00,
2013-08-28 17:30:00,77.7,72.8,29.86,WSW,243,0.0,3.0,85,0.00,CLR,,0.88,WeatherDisplay:10.37,2013-08-28 21:30:00,
2013-08-28 17:40:00,77.4,72.8,29.86,SW,230,0.0,2.0,86,0.00,CLR,,0.88,WeatherDisplay:10.37,2013-08-28 21:40:00,
2013-08-28 17:45:00,77.4,72.8,29.86,SW,227,1.0,2.0,86,0.00,CLR,,0.88,WeatherDisplay:10.37,2013-08-28 21:45:00,
2013-08-28 17:50:00,77.2,72.7,29.86,SSW,197,1.0,2.0,86,0.00,CLR,,0.88,WeatherDisplay:10.37,2013-08-28 21:50:00,
2013-08-28 17:55:00,77.0,72.5,29.87,WSW,252,2.0,4.0,86,0.00,CLR,,0.88,WeatherDisplay:10.37,2013-08-28 21:55:00,
2013-08-28 18:00:00,77.0,72.8,29.87,NW,313,1.0,2.0,87,0.01,RA,,0.89,WeatherDisplay:10.37,2013-08-28 22:00:00,
2013-08-28 18:05:00,76.8,72.7,29.87,North,349,1.0,2.0,87,0.00,RA,,0.89,WeatherDisplay:10.37,2013-08-28 22:05:00,
2013-08-28 18:10:00,76.6,72.5,29.87,North,357,1.0,2.0,87,0.00,,,0.89,WeatherDisplay:10.37,2013-08-28 22:10:00,
2013-08-28 18:15:00,76.4,72.6,29.87,North,351,1.0,2.0,88,0.00,CLR,,0.89,WeatherDisplay:10.37,2013-08-28 22:15:00,
2013-08-28 18:20:00,76.3,72.5,29.87,North,354,1.0,1.0,88,0.00,CLR,,0.89,WeatherDisplay:10.37,2013-08-28 22:20:00,
2013-08-28 18:25:00,76.1,72.3,29.87,North,2,1.0,1.0,88,0.00,CLR,,0.89,WeatherDisplay:10.37,2013-08-28 22:25:00,
2013-08-28 18:30:00,76.1,72.3,29.87,North,356,1.0,1.0,88,0.00,CLR,,0.89,WeatherDisplay:10.37,2013-08-28 22:30:00,
2013-08-28 18:35:00,75.9,72.4,29.87,NNW,345,0.0,1.0,89,0.00,CLR,,0.89,WeatherDisplay:10.37,2013-08-28 22:35:00,
2013-08-28 18:40:00,75.9,72.4,29.87,NNW,341,1.0,1.0,89,0.00,CLR,,0.89,WeatherDisplay:10.37,2013-08-28 22:40:00,
2013-08-28 18:45:00,75.9,72.4,29.87,North,4,1.0,2.0,89,0.00,CLR,,0.89,WeatherDisplay:10.37,2013-08-28 22:45:00,
2013-08-28 18:50:00,75.9,72.4,29.87,North,354,1.0,2.0,89,0.00,CLR,,0.89,WeatherDisplay:10.37,2013-08-28 22:50:00,
2013-08-28 19:00:00,75.9,72.4,29.88,NNW,344,1.0,2.0,89,0.00,CLR,,0.89,WeatherDisplay:10.37,2013-08-28 23:00:00,
2013-08-28 19:05:00,75.7,72.3,29.88,NE,45,1.0,4.0,89,0.03,RA,,0.92,WeatherDisplay:10.37,2013-08-28 23:05:00,
2013-08-28 19:10:00,75.6,72.1,29.88,NE,34,2.0,2.0,89,0.01,RA,,0.93,WeatherDisplay:10.37,2013-08-28 23:10:00,
2013-08-28 19:20:00,75.2,71.7,29.89,NE,43,2.0,3.0,89,0.00,CLR,,0.93,WeatherDisplay:10.37,2013-08-28 23:20:00,
2013-08-28 19:25:00,74.8,71.4,29.89,NE,47,1.0,2.0,89,0.00,CLR,,0.93,WeatherDisplay:10.37,2013-08-28 23:25:00,
2013-08-28 19:30:00,74.7,71.2,29.89,NE,50,1.0,2.0,89,0.00,CLR,,0.93,WeatherDisplay:10.37,2013-08-28 23:30:00,
2013-08-28 19:35:00,74.5,71.0,29.89,ENE,65,1.0,2.0,89,0.00,CLR,,0.93,WeatherDisplay:10.37,2013-08-28 23:35:00,
2013-08-28 19:40:00,74.4,71.0,29.90,ENE,62,0.0,1.0,89,0.00,CLR,,0.93,WeatherDisplay:10.37,2013-08-28 23:40:00,
2013-08-28 19:45:00,74.1,70.7,29.90,NE,50,1.0,1.0,89,0.00,CLR,,0.93,WeatherDisplay:10.37,2013-08-28 23:45:00,
2013-08-28 19:50:00,74.1,70.9,29.90,NE,45,1.0,1.0,90,0.00,CLR,,0.93,WeatherDisplay:10.37,2013-08-28 23:50:00,
2013-08-28 19:55:00,73.9,70.8,29.90,NE,39,1.0,1.0,90,0.00,CLR,,0.93,WeatherDisplay:10.37,2013-08-28 23:55:00,
2013-08-28 20:00:00,73.8,70.6,29.91,NE,37,1.0,1.0,90,0.00,CLR,,0.93,WeatherDisplay:10.37,2013-08-29 00:00:00,
2013-08-28 20:05:00,73.6,70.5,29.91,NNE,23,1.0,1.0,90,0.00,CLR,,0.93,WeatherDisplay:10.37,2013-08-29 00:05:00,
2013-08-28 20:15:00,73.4,70.3,29.91,North,6,1.0,1.0,90,0.00,CLR,,0.93,WeatherDisplay:10.37,2013-08-29 00:15:00,
2013-08-28 20:21:00,73.2,70.4,29.91,NNE,30,1.0,2.0,91,0.00,CLR,,0.93,WeatherDisplay:10.37,2013-08-29 00:21:00,
2013-08-28 20:30:00,73.0,69.9,29.91,NNE,16,1.0,2.0,90,0.00,CLR,,0.93,WeatherDisplay:10.37,2013-08-29 00:30:00,
2013-08-28 20:40:00,72.9,69.8,29.92,NNE,13,2.0,2.0,90,0.00,CLR,,0.93,WeatherDisplay:10.37,2013-08-29 00:40:00,
2013-08-28 20:50:00,72.7,69.6,29.93,NNE,17,1.0,2.0,90,0.00,CLR,,0.93,WeatherDisplay:10.37,2013-08-29 00:50:00,
2013-08-28 20:55:00,72.6,69.5,29.93,North,9,1.0,1.0,90,0.00,CLR,,0.93,WeatherDisplay:10.37,2013-08-29 00:55:00,
2013-08-28 21:00:00,72.5,69.4,29.93,North,9,1.0,1.0,90,0.00,CLR,,0.93,WeatherDisplay:10.37,2013-08-29 01:00:00,
2013-08-28 21:05:00,72.3,69.2,29.94,NNE,12,1.0,1.0,90,0.00,CLR,,0.93,WeatherDisplay:10.37,2013-08-29 01:05:00,
2013-08-28 21:10:00,72.3,69.2,29.94,NNE,14,1.0,1.0,90,0.00,CLR,,0.93,WeatherDisplay:10.37,2013-08-29 01:10:00,
2013-08-28 21:15:00,72.1,69.0,29.94,NNE,16,0.0,1.0,90,0.00,CLR,,0.93,WeatherDisplay:10.37,2013-08-29 01:15:00,
2013-08-28 21:20:00,72.0,68.9,29.94,NNE,20,1.0,2.0,90,0.00,CLR,,0.93,WeatherDisplay:10.37,2013-08-29 01:20:00,
2013-08-28 21:30:00,71.8,68.7,29.95,NNE,18,0.0,1.0,90,0.00,CLR,,0.93,WeatherDisplay:10.37,2013-08-29 01:30:00,
2013-08-28 21:40:00,71.6,68.5,29.95,NNE,14,0.0,1.0,90,0.00,CLR,,0.93,WeatherDisplay:10.37,2013-08-29 01:40:00,
2013-08-28 21:50:00,71.6,68.8,29.95,North,1,0.0,1.0,91,0.00,CLR,,0.93,WeatherDisplay:10.37,2013-08-29 01:50:00,
2013-08-28 21:55:00,71.4,68.7,29.95,North,7,0.0,0.0,91,0.00,CLR,,0.93,WeatherDisplay:10.37,2013-08-29 01:55:00,
2013-08-28 22:00:00,71.4,68.7,29.95,North,4,1.0,1.0,91,0.00,CLR,,0.93,WeatherDisplay:10.37,2013-08-29 02:00:00,
2013-08-28 22:05:00,71.4,68.7,29.95,NNE,13,0.0,1.0,91,0.00,CLR,,0.93,WeatherDisplay:10.37,2013-08-29 02:05:00,
2013-08-28 22:10:00,71.2,68.5,29.95,NNE,18,0.0,1.0,91,0.00,CLR,,0.93,WeatherDisplay:10.37,2013-08-29 02:10:00,
2013-08-28 22:15:00,71.2,68.5,29.95,NNE,20,0.0,1.0,91,0.00,CLR,,0.93,WeatherDisplay:10.37,2013-08-29 02:15:00,
2013-08-28 22:20:00,71.2,68.5,29.95,NNE,12,0.0,1.0,91,0.00,CLR,,0.93,WeatherDisplay:10.37,2013-08-29 02:20:00,
2013-08-28 22:25:00,71.2,68.4,29.95,North,3,0.0,1.0,91,0.00,CLR,,0.93,WeatherDisplay:10.37,2013-08-29 02:25:00,
2013-08-28 22:30:00,71.1,68.3,29.95,North,6,0.0,1.0,91,0.00,CLR,,0.93,WeatherDisplay:10.37,2013-08-29 02:30:00,
2013-08-28 22:40:00,70.9,68.1,29.96,North,350,0.0,1.0,91,0.00,CLR,,0.93,WeatherDisplay:10.37,2013-08-29 02:40:00,
2013-08-28 22:45:00,70.9,68.1,29.96,North,352,0.0,1.0,91,0.00,CLR,,0.93,WeatherDisplay:10.37,2013-08-29 02:45:00,
2013-08-28 22:50:00,70.9,68.1,29.96,NNW,348,0.0,1.0,91,0.00,CLR,,0.93,WeatherDisplay:10.37,2013-08-29 02:50:00,
2013-08-28 23:00:00,70.9,68.1,29.96,NNE,17,0.0,0.0,91,0.00,CLR,,0.93,WeatherDisplay:10.37,2013-08-29 03:00:00,
2013-08-28 23:05:00,70.9,68.1,29.96,NNE,31,0.0,0.0,91,0.00,CLR,,0.93,WeatherDisplay:10.37,2013-08-29 03:05:00,
2013-08-28 23:10:00,70.9,68.1,29.96,NNE,16,0.0,0.0,91,0.00,CLR,,0.93,WeatherDisplay:10.37,2013-08-29 03:10:00,
2013-08-28 23:20:00,70.9,68.1,29.96,NNW,345,0.0,1.0,91,0.00,CLR,,0.93,WeatherDisplay:10.37,2013-08-29 03:20:00,
2013-08-28 23:25:00,70.9,68.1,29.96,NNW,338,0.0,0.0,91,0.00,CLR,,0.93,WeatherDisplay:10.37,2013-08-29 03:25:00,
2013-08-28 23:30:00,70.9,68.1,29.96,NW,323,1.0,1.0,91,0.00,CLR,,0.93,WeatherDisplay:10.37,2013-08-29 03:30:00,
2013-08-28 23:35:00,70.9,68.1,29.96,WSW,239,0.0,1.0,91,0.00,CLR,,0.93,WeatherDisplay:10.37,2013-08-29 03:35:00,
2013-08-28 23:40:00,70.8,68.1,29.96,East,85,0.0,1.0,91,0.00,CLR,,0.93,WeatherDisplay:10.37,2013-08-29 03:40:00,
2013-08-28 23:50:00,70.7,67.9,29.96,ENE,65,0.0,1.0,91,0.00,CLR,,0.93,WeatherDisplay:10.37,2013-08-29 03:50:00,
2013-08-28 23:55:00,70.7,67.9,29.96,NW,307,0.0,1.0,91,0.00,CLR,,0.93,WeatherDisplay:10.37,2013-08-29 03:55:00,